WetterOnline ( https://www.wetteronline.de )

Wetter aktuell Harz (in 600m)

Aktuelles Wetter: Braunlage (609m)

6-stündlich | Neueste Meldungen
Ortszeit Temperatur Wetter
Mi, 19.06. 8:00 21.4° C wolkig
Mi, 19.06. 2:00 15.8° C bedeckt
Di, 18.06. 20:00 21.9° C wolkig
Di, 18.06. 14:00 23.3° C leicht bewölkt
Di, 18.06. 8:00 19.3° C leicht bewölkt
Di, 18.06. 2:00 15.3° C wolkenlos
Mo, 17.06. 20:00 20.1° C leicht bewölkt
Mo, 17.06. 14:00 19.3° C leicht bewölkt
Ortszeit Temperatur Wetter
Mi, 19.06. 9:30 23.4° C fast wolkenlos
Mi, 19.06. 9:20 23.4° C fast wolkenlos
Mi, 19.06. 9:10 23.4° C fast wolkenlos
Mi, 19.06. 9:00 23.3° C leicht bewölkt
Mi, 19.06. 8:50 23.3° C leicht bewölkt
Mi, 19.06. 8:40 22.9° C wolkenlos
Mi, 19.06. 8:30 22.5° C leicht bewölkt
Mi, 19.06. 8:00 21.4° C wolkig
Mi, 19.06. 7:30 21.3° C bedeckt
Mi, 19.06. 7:00 19.5° C bedeckt
Mi, 19.06. 6:30 16.0° C bedeckt
Ortszeit Relative Feuchte Sichtweite
Mi, 19.06. 8:00 57% 50 km
Mi, 19.06. 2:00 79% 65 km
Di, 18.06. 20:00 50% >70 km
Di, 18.06. 14:00 38% 65 km
Di, 18.06. 8:00 61% 60 km
Di, 18.06. 2:00 71% 55 km
Mo, 17.06. 20:00 54% 60 km
Mo, 17.06. 14:00 60% 65 km
Ortszeit Relative Feuchte Sichtweite
Mi, 19.06. 9:30 48% 55 km
Mi, 19.06. 9:20 48% -
Mi, 19.06. 9:10 48% -
Mi, 19.06. 9:00 49% 45 km
Mi, 19.06. 8:50 49% -
Mi, 19.06. 8:40 51% -
Mi, 19.06. 8:30 53% 55 km
Mi, 19.06. 8:00 57% 50 km
Mi, 19.06. 7:30 66% 45 km
Mi, 19.06. 7:00 71% 50 km
Mi, 19.06. 6:30 78% 60 km
Ortszeit Niederschlagsmenge Niederschlagsart
Mi, 19.06. 8:00 0.0 l/m2 in 12 Std. -
Mi, 19.06. 2:00 0.0 l/m2 in 6 Std. -
Di, 18.06. 20:00 0.0 l/m2 in 12 Std. -
Di, 18.06. 14:00 0.0 l/m2 in 6 Std. -
Di, 18.06. 8:00 0.0 l/m2 in 12 Std. -
Di, 18.06. 2:00 0.0 l/m2 in 6 Std. -
Mo, 17.06. 20:00 0.0 l/m2 in 12 Std. -
Mo, 17.06. 14:00 0.0 l/m2 in 6 Std. -
Ortszeit Niederschlagsmenge Niederschlagsart
Mi, 19.06. 9:30 0.0 l/m2 in 1 Std. -
Mi, 19.06. 9:20 keine Meldung -
Mi, 19.06. 9:10 keine Meldung -
Mi, 19.06. 9:00 0.0 l/m2 in 1 Std. -
Mi, 19.06. 8:50 keine Meldung -
Mi, 19.06. 8:40 keine Meldung -
Mi, 19.06. 8:30 0.0 l/m2 in 1 Std. -
Mi, 19.06. 8:00 0.0 l/m2 in 1 Std. -
Mi, 19.06. 7:30 0.0 l/m2 in 1 Std. -
Mi, 19.06. 7:00 0.0 l/m2 in 1 Std. -
Mi, 19.06. 6:30 0.0 l/m2 in 1 Std. -
Ortszeit Stärke Spitze Richtung
km/h Bft. km/h Grad Sektor
Mi, 19.06. 8:00 7 2 14 250° W
Mi, 19.06. 2:00 4 1 11 350° N
Di, 18.06. 20:00 7 2 32 190° S
Di, 18.06. 14:00 14 3 32 180° S
Di, 18.06. 8:00 4 1 14 20° N
Di, 18.06. 2:00 6 1 17 40° NO
Mo, 17.06. 20:00 7 2 29 110° O
Mo, 17.06. 14:00 11 2 25 150° SO
Ortszeit Stärke Spitze Richtung
km/h Bft. km/h Grad Sektor
Mi, 19.06. 9:30 11 2 18 210° SW
Mi, 19.06. 9:20 11 2 - 210° SW
Mi, 19.06. 9:10 11 2 - 230° SW
Mi, 19.06. 9:00 7 2 17 220° SW
Mi, 19.06. 8:50 7 2 - 220° SW
Mi, 19.06. 8:40 7 2 - 230° SW
Mi, 19.06. 8:30 7 2 11 210° SW
Mi, 19.06. 8:00 7 2 14 250° W
Mi, 19.06. 7:30 4 1 7 240° SW
Mi, 19.06. 7:00 4 1 7 240° SW
Mi, 19.06. 6:30 0 0 4 - -
Ortszeit Untergrenze Bedeckung Gattung
total tief tief mittel hoch
Mi, 19.06. 8:00 5100 m 8/8 8/8 - - -
Mi, 19.06. 2:00 5700 m 8/8 8/8 - - -
Di, 18.06. 20:00 8100 m 8/8 0/8 - - -
Di, 18.06. 14:00 1500 m 2/8 2/8 - - -
Di, 18.06. 8:00 9000 m 8/8 0/8 - - -
Di, 18.06. 2:00 - 0/8 0/8 - - -
Mo, 17.06. 20:00 1800 m 2/8 2/8 - - -
Mo, 17.06. 14:00 1800 m 4/8 4/8 - - -
Ortszeit Bedeckungsgrad in Achtel und Wolkenuntergrenze
Mi, 19.06. 9:30 1(7800m)
Mi, 19.06. 9:20 1(7800m)
Mi, 19.06. 9:10 1(5700m)
Mi, 19.06. 9:00 2(5700m)
Mi, 19.06. 8:50 2(5700m)
Mi, 19.06. 8:40 keine Wolken
Mi, 19.06. 8:30 4(5100m)
Mi, 19.06. 8:00 8(5100m)
Mi, 19.06. 7:30 8(5100m) 8(6000m)
Mi, 19.06. 7:00 8(5100m) 8(5700m)
Mi, 19.06. 6:30 8(5100m) 8(6000m)
Ortszeit Luftdruck NN (hPa) Tendenz (hPa in 3 Std.)
Mi, 19.06. 8:00 1010 - 0,4
Mi, 19.06. 2:00 1013 - 0,8
Di, 18.06. 20:00 1013 - 0,9
Di, 18.06. 14:00 1015 - 1,0
Di, 18.06. 8:00 1017 - 0,3
Di, 18.06. 2:00 1019 - 0,2
Mo, 17.06. 20:00 1019 - 1,0
Mo, 17.06. 14:00 1021 - 0,7
Ortszeit Luftdruck NN (hPa) Tendenz (hPa in 3 Std.)
Mi, 19.06. 9:30 1009 - 0,7
Mi, 19.06. 9:20 1009 keine Meldung
Mi, 19.06. 9:10 1009 keine Meldung
Mi, 19.06. 9:00 1009 - 0,6
Mi, 19.06. 8:50 1009 keine Meldung
Mi, 19.06. 8:40 1009 keine Meldung
Mi, 19.06. 8:30 1010 - 0,4
Mi, 19.06. 8:00 1010 - 0,4
Mi, 19.06. 7:30 1010 - 0,4
Mi, 19.06. 7:00 1010 - 0,7
Mi, 19.06. 6:30 1011 - 0,8
Ortszeit Schneehöhe (cm)
Mi, 19.06. 8:00 -
Mi, 19.06. 2:00 -
Di, 18.06. 20:00 -
Di, 18.06. 14:00 -
Di, 18.06. 8:00 -
Di, 18.06. 2:00 -
Mo, 17.06. 20:00 -
Mo, 17.06. 14:00 -
Ortszeit Schneehöhe (cm)
Mi, 19.06. 9:30 -
Mi, 19.06. 9:20 -
Mi, 19.06. 9:10 -
Mi, 19.06. 9:00 -
Mi, 19.06. 8:50 -
Mi, 19.06. 8:40 -
Mi, 19.06. 8:30 -
Mi, 19.06. 8:00 -
Mi, 19.06. 7:30 -
Mi, 19.06. 7:00 -
Mi, 19.06. 6:30 -
Link zu dieser Seite / Seite empfehlen

Das Wetter in ...